• In Belarus
  • List of Countries
  • For 7 days
  • Water Temperature
  • Satellite Maps
  • Weather Map
  • Weather Widgets
  • user-avatar
    Login

    Hourly Weather Pody

    Today, 21 April, Sunday

    Time Temperature Precipitation Wind Pressure Humidity
    00:00 +7°C° 0 mm 1 mps 766 mmHg 52%
    01:00 +7°C° 0 mm 1 mps 766 mmHg 53%
    02:00 +5°C° 0 mm 2 mps 766 mmHg 54%
    03:00 +5°C° 0 mm 2 mps 766 mmHg 55%
    04:00 +5°C° 0 mm 2 mps 766 mmHg 55%
    05:00 +4°C° 0 mm 2 mps 766 mmHg 56%
    06:00 +6°C° 0 mm 2 mps 766 mmHg 52%
    07:00 +8°C° 0 mm 3 mps 766 mmHg 48%
    08:00 +10°C° 0 mm 3 mps 766 mmHg 42%
    09:00 +11°C° 0 mm 4 mps 766 mmHg 38%
    10:00 +13°C° 0 mm 4 mps 766 mmHg 34%
    11:00 +14°C° 0 mm 4 mps 766 mmHg 30%
    12:00 +14°C° 0 mm 4 mps 766 mmHg 29%
    13:00 +15°C° 0 mm 4 mps 765 mmHg 28%
    14:00 +16°C° 0 mm 3 mps 765 mmHg 28%
    15:00 +14°C° 0 mm 3 mps 765 mmHg 30%
    16:00 +14°C° 0 mm 3 mps 765 mmHg 32%
    17:00 +14°C° 0 mm 3 mps 765 mmHg 34%
    18:00 +12°C° 0 mm 3 mps 765 mmHg 38%
    19:00 +12°C° 0 mm 2 mps 765 mmHg 41%
    20:00 +10°C° 0 mm 2 mps 765 mmHg 45%
    21:00 +9°C° 0 mm 2 mps 765 mmHg 46%
    22:00 +8°C° 0 mm 2 mps 766 mmHg 48%
    23:00 +8°C° 0 mm 2 mps 766 mmHg 49%

    Tomorrow, 22 April, Monday

    Time Temperature Precipitation Wind Pressure Humidity
    00:00 +7°C° 0 mm 2 mps 766 mmHg 50%
    01:00 +7°C° 0 mm 2 mps 766 mmHg 51%
    02:00 +7°C° 0 mm 3 mps 766 mmHg 52%
    03:00 +7°C° 0 mm 3 mps 766 mmHg 53%
    04:00 +7°C° 0 mm 3 mps 766 mmHg 54%
    05:00 +7°C° 0 mm 3 mps 766 mmHg 56%
    06:00 +7°C° 0 mm 4 mps 766 mmHg 53%
    07:00 +10°C° 0 mm 4 mps 766 mmHg 49%
    08:00 +12°C° 0 mm 5 mps 766 mmHg 46%
    09:00 +13°C° 0 mm 5 mps 766 mmHg 42%
    10:00 +14°C° 0 mm 5 mps 766 mmHg 38%
    11:00 +15°C° 0 mm 6 mps 766 mmHg 33%
    12:00 +15°C° 0 mm 5 mps 766 mmHg 34%
    13:00 +15°C° 0 mm 5 mps 766 mmHg 34%
    14:00 +15°C° 0 mm 5 mps 766 mmHg 34%
    15:00 +15°C° 0 mm 4 mps 766 mmHg 37%
    16:00 +15°C° 0 mm 4 mps 767 mmHg 39%
    17:00 +14°C° 0 mm 3 mps 767 mmHg 42%
    18:00 +13°C° 0 mm 3 mps 767 mmHg 44%
    19:00 +12°C° 0 mm 2 mps 767 mmHg 47%
    20:00 +10°C° 0 mm 2 mps 768 mmHg 49%
    21:00 +9°C° 0 mm 2 mps 768 mmHg 49%
    22:00 +10°C° 0 mm 1 mps 768 mmHg 48%
    23:00 +9°C° 0 mm 1 mps 768 mmHg 48%

    Day after tomorrow, 23 April, Tuesday

    Time Temperature Precipitation Wind Pressure Humidity
    00:00 +9°C° 0 mm 1 mps 768 mmHg 49%
    01:00 +8°C° 0 mm 2 mps 768 mmHg 50%
    02:00 +8°C° 0 mm 2 mps 768 mmHg 50%
    03:00 +7°C° 0 mm 3 mps 768 mmHg 52%
    04:00 +7°C° 0 mm 3 mps 769 mmHg 54%
    05:00 +7°C° 0 mm 3 mps 769 mmHg 56%
    06:00 +9°C° 0 mm 3 mps 769 mmHg 54%
    07:00 +11°C° 0 mm 4 mps 769 mmHg 52%
    08:00 +13°C° 0 mm 4 mps 770 mmHg 49%
    09:00 +14°C° 0 mm 5 mps 770 mmHg 45%
    10:00 +15°C° 0 mm 5 mps 770 mmHg 42%
    11:00 +16°C° 0 mm 5 mps 770 mmHg 38%
    12:00 +16°C° 0 mm 6 mps 770 mmHg 38%
    13:00 +17°C° 0 mm 6 mps 770 mmHg 37%
    14:00 +17°C° 0 mm 6 mps 770 mmHg 36%
    15:00 +16°C° 0 mm 6 mps 770 mmHg 36%
    16:00 +16°C° 0 mm 6 mps 770 mmHg 37%
    17:00 +15°C° 0 mm 5 mps 770 mmHg 37%
    18:00 +13°C° 0 mm 5 mps 770 mmHg 40%
    19:00 +12°C° 0 mm 4 mps 770 mmHg 44%
    20:00 +10°C° 0 mm 3 mps 770 mmHg 47%
    21:00 +9°C° 0 mm 3 mps 770 mmHg 49%
    22:00 +9°C° 0 mm 3 mps 770 mmHg 51%
    23:00 +8°C° 0 mm 3 mps 771 mmHg 53%

    24 April, Wednesday

    Time Temperature Precipitation Wind Pressure Humidity
    00:00 +8°C° 0 mm 3 mps 771 mmHg 55%
    01:00 +8°C° 0 mm 3 mps 771 mmHg 56%
    02:00 +7°C° 0 mm 3 mps 771 mmHg 57%
    03:00 +7°C° 0 mm 3 mps 771 mmHg 58%
    04:00 +7°C° 0 mm 3 mps 771 mmHg 59%
    05:00 +7°C° 0 mm 3 mps 771 mmHg 60%
    06:00 +8°C° 0 mm 4 mps 771 mmHg 56%
    07:00 +11°C° 0 mm 4 mps 771 mmHg 53%
    08:00 +12°C° 0 mm 5 mps 771 mmHg 50%
    09:00 +14°C° 0 mm 5 mps 771 mmHg 46%
    10:00 +16°C° 0 mm 5 mps 771 mmHg 43%
    11:00 +17°C° 0 mm 6 mps 771 mmHg 40%
    12:00 +19°C° 0 mm 5 mps 771 mmHg 38%
    13:00 +19°C° 0 mm 5 mps 771 mmHg 37%
    14:00 +20°C° 0 mm 5 mps 771 mmHg 36%
    15:00 +19°C° 0 mm 4 mps 771 mmHg 37%
    16:00 +19°C° 0 mm 4 mps 770 mmHg 38%
    17:00 +18°C° 0 mm 4 mps 770 mmHg 39%
    18:00 +15°C° 0 mm 4 mps 770 mmHg 42%
    19:00 +13°C° 0 mm 3 mps 771 mmHg 46%
    20:00 +12°C° 0 mm 3 mps 771 mmHg 49%
    21:00 +11°C° 0 mm 3 mps 771 mmHg 50%
    22:00 +10°C° 0 mm 2 mps 771 mmHg 50%
    23:00 +10°C° 0 mm 2 mps 771 mmHg 51%

    25 April, Thursday

    Time Temperature Precipitation Wind Pressure Humidity
    00:00 +10°C° 0 mm 2 mps 771 mmHg 52%
    01:00 +10°C° 0 mm 1 mps 771 mmHg 54%
    02:00 +10°C° 0 mm 1 mps 771 mmHg 56%
    03:00 +10°C° 0 mm 1 mps 771 mmHg 56%
    04:00 +9°C° 0 mm 2 mps 771 mmHg 55%
    05:00 +8°C° 0 mm 2 mps 771 mmHg 55%
    06:00 +10°C° 0 mm 2 mps 771 mmHg 51%
    07:00 +12°C° 0 mm 3 mps 771 mmHg 48%
    08:00 +16°C° 0 mm 3 mps 771 mmHg 45%
    09:00 +17°C° 0 mm 3 mps 771 mmHg 42%
    10:00 +19°C° 0 mm 3 mps 771 mmHg 40%
    11:00 +21°C° 0 mm 4 mps 771 mmHg 37%
    12:00 +21°C° 0 mm 4 mps 771 mmHg 37%
    13:00 +22°C° 0 mm 3 mps 770 mmHg 36%
    14:00 +22°C° 0 mm 3 mps 770 mmHg 36%
    15:00 +22°C° 0 mm 3 mps 770 mmHg 37%
    16:00 +22°C° 0 mm 3 mps 769 mmHg 39%
    17:00 +21°C° 0 mm 2 mps 769 mmHg 40%
    18:00 +19°C° 0 mm 2 mps 769 mmHg 45%
    19:00 +17°C° 0 mm 2 mps 769 mmHg 50%
    20:00 +15°C° 0 mm 1 mps 769 mmHg 55%
    21:00 +15°C° 0 mm 1 mps 769 mmHg 56%
    22:00 +14°C° 0 mm 1 mps 769 mmHg 57%
    23:00 +14°C° 0 mm 1 mps 768 mmHg 58%

    26 April, Friday

    Time Temperature Precipitation Wind Pressure Humidity
    00:00 +13°C° 0 mm 1 mps 768 mmHg 60%
    01:00 +13°C° 0 mm 1 mps 768 mmHg 61%
    02:00 +13°C° 0 mm 1 mps 768 mmHg 63%
    03:00 +13°C° 0 mm 1 mps 768 mmHg 64%
    04:00 +12°C° 0 mm 1 mps 767 mmHg 66%
    05:00 +12°C° 0 mm 2 mps 767 mmHg 68%
    06:00 +14°C° 0 mm 2 mps 767 mmHg 63%
    07:00 +16°C° 0 mm 2 mps 767 mmHg 58%
    08:00 +18°C° 0 mm 2 mps 767 mmHg 54%
    09:00 +20°C° 0 mm 3 mps 767 mmHg 50%
    10:00 +21°C° 0 mm 4 mps 766 mmHg 46%
    11:00 +23°C° 0 mm 4 mps 766 mmHg 42%
    12:00 +23°C° 0 mm 4 mps 766 mmHg 40%
    13:00 +23°C° 0 mm 4 mps 765 mmHg 39%
    14:00 +25°C° 0 mm 5 mps 765 mmHg 38%
    15:00 +23°C° 0 mm 5 mps 765 mmHg 39%
    16:00 +23°C° 0 mm 5 mps 764 mmHg 41%
    17:00 +22°C° 0 mm 5 mps 764 mmHg 43%
    18:00 +20°C° 0 mm 4 mps 764 mmHg 48%
    19:00 +18°C° 0 mm 4 mps 764 mmHg 53%
    20:00 +16°C° 0 mm 3 mps 764 mmHg 59%
    21:00 +16°C° 0 mm 3 mps 764 mmHg 61%
    22:00 +14°C° 0 mm 3 mps 764 mmHg 64%
    23:00 +13°C° 0 mm 3 mps 763 mmHg 67%
    Show more